This demonstration page uses our WeatherBlox Daily Observations layout. Learn more.

Left ArrowRight Arrow

44.8408, -93.29828

Hourly Observations for March 8, 2018

Temp ( °F °C ) Dew Point ( °F °C ) Humidity (%) Winds ( mph kmh ) Pressure ( in mb ) Visibility ( mi km ) Precip ( " mm )
12:53 am 00:53 Clear 16 -8.9 11 -11.7 80 80 NW 6 9 30.14 1021 10 16 0.00 0.00
1:53 am 01:53 Clear 17 -8.3 11 -11.7 77 77 NW 7 11 30.14 1021 10 16 0.00 0.00
2:53 am 02:53 Clear 14 -10 9 -12.8 80 80 NW 6 9 30.14 1021 10 16 0.00 0.00
3:53 am 03:53 Clear 14 -10 9 -12.8 80 80 NW 8 13 30.15 1021 10 16 0.00 0.00
4:53 am 04:53 Mostly Clear 14 -10 9 -12.8 80 80 NW 7 11 30.16 1021 10 16 0.00 0.00
5:53 am 05:53 Mostly Clear 13 -10.6 8 -13.3 81 81 W 6 9 30.17 1022 10 16 0.00 0.00
6:53 am 06:53 Mostly Sunny 13 -10.6 8 -13.3 81 81 WNW 3 6 30.17 1022 10 16 0.00 0.00
7:53 am 07:53 Sunny 14 -10 9 -12.8 80 80 NW 7 11 30.18 1022 10 16 0.00 0.00
8:53 am 08:53 Sunny 18 -7.8 11 -11.7 74 74 NNW 6 9 30.18 1022 10 16 0.00 0.00
9:53 am 09:53 Sunny 22 -5.6 11 -11.7 63 63 W 3 6 30.17 1022 10 16 0.00 0.00
10:53 am 10:53 Sunny 25 -3.9 11 -11.7 55 55 WSW 7 11 30.16 1021 10 16 0.00 0.00
11:53 am 11:53 Sunny 27 -2.8 10 -12.2 49 49 NW 8 13 30.14 1021 10 16 0.00 0.00
12:53 pm 12:53 Sunny 28 -2.2 10 -12.2 47 47 NNW 8 13 30.13 1020 10 16 0.00 0.00
1:53 pm 13:53 Sunny 30 -1.1 11 -11.7 45 45 NNW 9 15 30.10 1019 10 16 0.00 0.00
2:53 pm 14:53 Sunny 31 -0.6 13 -10.6 47 47 NW 8 13 30.09 1019 10 16 0.00 0.00
3:53 pm 15:53 Sunny 30 -1.1 13 -10.6 49 49 WSW 8 13 30.09 1019 10 16 0.00 0.00
4:53 pm 16:53 Sunny 29 -1.7 14 -10 54 54 WNW 9 15 30.09 1019 10 16 0.00 0.00
5:53 pm 17:53 Sunny 28 -2.2 14 -10 56 56 W 10 17 30.09 1019 10 16 0.00 0.00
6:53 pm 18:53 Clear 25 -3.9 15 -9.4 66 66 WSW 8 13 30.09 1019 10 16 0.00 0.00
7:53 pm 19:53 Mostly Clear 23 -5 15 -9.4 72 72 W 7 11 30.09 1019 10 16 0.00 0.00
8:53 pm 20:53 Mostly Cloudy 22 -5.6 15 -9.4 75 75 W 7 11 30.09 1019 10 16 0.00 0.00
9:53 pm 21:53 Cloudy 21 -6.1 15 -9.4 78 78 W 7 11 30.09 1019 10 16 0.00 0.00
10:53 pm 22:53 Cloudy 21 -6.1 15 -9.4 78 78 Calm 30.07 1018 10 16 0.00 0.00
11:53 pm 23:53 Cloudy 21 -6.1 15 -9.4 78 78 SW 6 9 30.07 1018 10 16 0.00 0.00

Powered by AerisWeather